Location: Bergheim
(50.9593°N, 6.6400°E)
Time: 09:50:23
(UTC+02:00)

ISS - Pass Details

Date: 21 May 2021
Orbit: 417 x 422 km, 51.6° (Epoch: 13 June)

Event Time Altitude Azimuth Distance (km) Brightness Sun altitude
Rises 02:07:38 0° 285° (WNW) 2,371 0.1 -18.4°
Reaches altitude 10° 02:09:55 10° 273° (W) 1,505 -1.0 -18.3°
Enters shadow 02:10:13 12° 270° (W) 1,404 -1.2 -18.3°
